User: anonymous   Login
Location: Albany
(35.0000°S, 118.0000°E)
Time: 22:19:06
(UTC-04:00)
Language:

Cosmos 1346 Rocket - Orbit

View from above orbital plane
View from above orbital plane
View from above satellite
View from above satellite

Ground track
Ground track

The orbit data is extracted from the following two-line orbital elements,

1 13121U 82027B   16121.37251385  .00000847  00000-0  53237-4 0  9995
2 13121  81.1660 233.2530 0029309  92.1516 268.3065 15.07828593854765
Epoch (UTC): 30 April 2016 08:56:25
Eccentricity: 0.0029309
inclination: 81.1660°
perigee height: 522 km
apogee height: 563 km
right ascension of ascending node: 233.2530°
argument of perigee: 92.1516°
revolutions per day: 15.07828593
mean anomaly at epoch: 268.3065°
orbit number at epoch: 85476

The dashed part of the orbit path shows where the satellite is in the earth's shadow,  

DLR